When you browse on this site, cookies collect data to enhance your experience and personalize the content and advertising you see.
Visit our Privacy Policy to learn more. By continuing to use the site, you agree to this use of cookies and data.
  • En España
  • Lista de países
  • Para 7 días
  • Temperatura del agua
  • El tiempo en el mapa
  • Informadores
  • user-avatar
    Iniciar sesión

    Tiempo cada hora Nacimiento

    Hoy, 23 Enero, Jueves

    Tiempo Temperatura Precipitaciones Viento Presión Humedad
    00:00 +18°C° 0 mm 1 mps 754 mmHg 80%
    01:00 +15°C° 0 mm 0 mps 754 mmHg 84%
    02:00 +14°C° 0 mm 0 mps 754 mmHg 84%
    03:00 +14°C° 0 mm 0 mps 755 mmHg 84%
    04:00 +14°C° 0 mm 0 mps 755 mmHg 84%
    05:00 +15°C° 0 mm 0 mps 755 mmHg 75%
    06:00 +17°C° 0 mm 0 mps 756 mmHg 67%
    07:00 +19°C° 0 mm 0 mps 756 mmHg 59%
    08:00 +24°C° 0 mm 1 mps 756 mmHg 47%
    09:00 +28°C° 0 mm 1 mps 757 mmHg 36%
    10:00 +31°C° 0 mm 2 mps 757 mmHg 25%
    11:00 +34°C° 0 mm 2 mps 757 mmHg 21%
    12:00 +36°C° 0 mm 2 mps 757 mmHg 18%
    13:00 +37°C° 0 mm 2 mps 756 mmHg 15%
    14:00 +37°C° 0 mm 3 mps 756 mmHg 16%
    15:00 +37°C° 0 mm 3 mps 756 mmHg 17%
    16:00 +37°C° 0 mm 3 mps 756 mmHg 18%
    17:00 +34°C° 0 mm 4 mps 756 mmHg 23%
    18:00 +29°C° 0 mm 4 mps 756 mmHg 28%
    19:00 +26°C° 0 mm 4 mps 756 mmHg 33%
    20:00 +23°C° 0 mm 4 mps 756 mmHg 40%
    21:00 +21°C° 0 mm 3 mps 756 mmHg 47%
    22:00 +19°C° 0 mm 3 mps 756 mmHg 53%
    23:00 +18°C° 0 mm 3 mps 756 mmHg 55%

    Mañana, 24 Enero, Viernes

    Tiempo Temperatura Precipitaciones Viento Presión Humedad
    00:00 +17°C° 0 mm 3 mps 756 mmHg 56%
    01:00 +17°C° 0 mm 3 mps 756 mmHg 57%
    02:00 +16°C° 0 mm 3 mps 756 mmHg 58%
    03:00 +16°C° 0 mm 3 mps 756 mmHg 59%
    04:00 +16°C° 0 mm 3 mps 756 mmHg 60%
    05:00 +18°C° 0 mm 3 mps 756 mmHg 52%
    06:00 +19°C° 0 mm 3 mps 756 mmHg 44%
    07:00 +21°C° 0 mm 3 mps 757 mmHg 36%
    08:00 +25°C° 0 mm 3 mps 757 mmHg 28%
    09:00 +28°C° 0 mm 4 mps 757 mmHg 21%
    10:00 +32°C° 0 mm 4 mps 756 mmHg 13%
    11:00 +34°C° 0 mm 4 mps 756 mmHg 12%
    12:00 +35°C° 0 mm 4 mps 756 mmHg 11%
    13:00 +36°C° 0 mm 4 mps 756 mmHg 10%
    14:00 +36°C° 0 mm 4 mps 756 mmHg 11%
    15:00 +35°C° 0 mm 4 mps 756 mmHg 12%
    16:00 +35°C° 0 mm 4 mps 756 mmHg 12%
    17:00 +32°C° 0 mm 4 mps 756 mmHg 16%
    18:00 +28°C° 0 mm 4 mps 757 mmHg 20%
    19:00 +25°C° 0 mm 4 mps 757 mmHg 24%
    20:00 +21°C° 0 mm 4 mps 757 mmHg 31%
    21:00 +19°C° 0 mm 4 mps 757 mmHg 39%
    22:00 +16°C° 0 mm 3 mps 757 mmHg 46%
    23:00 +16°C° 0 mm 3 mps 757 mmHg 49%

    Pasado mañana, 25 Enero, Sábado

    Tiempo Temperatura Precipitaciones Viento Presión Humedad
    00:00 +14°C° 0 mm 3 mps 757 mmHg 53%
    01:00 +14°C° 0 mm 3 mps 757 mmHg 57%
    02:00 +14°C° 0 mm 3 mps 757 mmHg 57%
    03:00 +14°C° 0 mm 3 mps 757 mmHg 58%
    04:00 +14°C° 0 mm 3 mps 757 mmHg 59%
    05:00 +17°C° 0 mm 3 mps 757 mmHg 55%
    06:00 +18°C° 0 mm 3 mps 757 mmHg 50%
    07:00 +20°C° 0 mm 4 mps 757 mmHg 46%
    08:00 +23°C° 0 mm 4 mps 757 mmHg 42%
    09:00 +27°C° 0 mm 4 mps 757 mmHg 39%
    10:00 +29°C° 0 mm 5 mps 756 mmHg 35%
    11:00 +32°C° 0 mm 5 mps 756 mmHg 32%
    12:00 +33°C° 0 mm 5 mps 756 mmHg 30%
    13:00 +35°C° 0 mm 5 mps 756 mmHg 27%
    14:00 +35°C° 0 mm 5 mps 756 mmHg 27%
    15:00 +35°C° 0 mm 5 mps 756 mmHg 27%
    16:00 +35°C° 0 mm 5 mps 756 mmHg 27%
    17:00 +32°C° 0 mm 4 mps 756 mmHg 34%
    18:00 +28°C° 0 mm 4 mps 756 mmHg 41%
    19:00 +26°C° 0 mm 4 mps 757 mmHg 47%
    20:00 +24°C° 0 mm 3 mps 757 mmHg 56%
    21:00 +21°C° 0 mm 3 mps 757 mmHg 65%
    22:00 +19°C° 0 mm 3 mps 757 mmHg 74%
    23:00 +18°C° 0 mm 3 mps 757 mmHg 77%

    26 Enero, Domingo

    Tiempo Temperatura Precipitaciones Viento Presión Humedad
    00:00 +17°C° 0 mm 3 mps 756 mmHg 80%
    01:00 +17°C° 0 mm 3 mps 756 mmHg 83%
    02:00 +17°C° 0 mm 3 mps 756 mmHg 84%
    03:00 +17°C° 0 mm 3 mps 756 mmHg 84%
    04:00 +16°C° 0 mm 3 mps 756 mmHg 84%
    05:00 +18°C° 0 mm 3 mps 756 mmHg 76%
    06:00 +20°C° 0 mm 3 mps 756 mmHg 68%
    07:00 +22°C° 0 mm 3 mps 756 mmHg 59%
    08:00 +26°C° 0 mm 3 mps 756 mmHg 50%
    09:00 +28°C° 0 mm 4 mps 756 mmHg 41%
    10:00 +32°C° 0 mm 5 mps 756 mmHg 32%
    11:00 +33°C° 0 mm 5 mps 756 mmHg 30%
    12:00 +35°C° 0 mm 5 mps 756 mmHg 29%
    13:00 +36°C° 0 mm 5 mps 756 mmHg 27%
    14:00 +36°C° 0 mm 5 mps 756 mmHg 28%
    15:00 +35°C° 0 mm 5 mps 756 mmHg 29%
    16:00 +35°C° 0 mm 5 mps 756 mmHg 30%
    17:00 +32°C° 0 mm 4 mps 756 mmHg 36%
    18:00 +29°C° 0 mm 4 mps 756 mmHg 41%
    19:00 +27°C° 0 mm 4 mps 756 mmHg 47%
    20:00 +25°C° 0 mm 3 mps 757 mmHg 53%
    21:00 +22°C° 0 mm 3 mps 757 mmHg 59%
    22:00 +20°C° 0 mm 3 mps 757 mmHg 66%
    23:00 +19°C° 0 mm 3 mps 757 mmHg 68%

    27 Enero, Lunes

    Tiempo Temperatura Precipitaciones Viento Presión Humedad
    00:00 +19°C° 0 mm 3 mps 757 mmHg 71%
    01:00 +18°C° 0 mm 3 mps 756 mmHg 73%
    02:00 +18°C° 0 mm 2 mps 756 mmHg 74%
    03:00 +18°C° 0 mm 2 mps 756 mmHg 75%
    04:00 +18°C° 0 mm 2 mps 756 mmHg 76%
    05:00 +19°C° 0 mm 2 mps 756 mmHg 69%
    06:00 +21°C° 0 mm 2 mps 756 mmHg 63%
    07:00 +22°C° 0 mm 3 mps 755 mmHg 56%
    08:00 +26°C° 0 mm 3 mps 755 mmHg 46%
    09:00 +29°C° 0 mm 3 mps 755 mmHg 37%
    10:00 +33°C° 0 mm 3 mps 755 mmHg 27%
    11:00 +35°C° 0 mm 3 mps 755 mmHg 25%
    12:00 +36°C° 0 mm 3 mps 754 mmHg 23%
    13:00 +38°C° 0 mm 3 mps 754 mmHg 21%
    14:00 +37°C° 0 mm 3 mps 754 mmHg 22%
    15:00 +37°C° 0 mm 4 mps 754 mmHg 24%
    16:00 +36°C° 0 mm 4 mps 754 mmHg 25%
    17:00 +34°C° 0 mm 3 mps 754 mmHg 29%
    18:00 +30°C° 0 mm 3 mps 755 mmHg 34%
    19:00 +27°C° 0 mm 3 mps 755 mmHg 39%
    20:00 +25°C° 0 mm 3 mps 755 mmHg 46%
    21:00 +22°C° 0 mm 3 mps 755 mmHg 53%
    22:00 +20°C° 0 mm 3 mps 755 mmHg 60%
    23:00 +19°C° 0 mm 3 mps 755 mmHg 67%

    28 Enero, Martes

    Tiempo Temperatura Precipitaciones Viento Presión Humedad
    00:00 +18°C° 0 mm 2 mps 755 mmHg 74%
    01:00 +16°C° 0 mm 2 mps 755 mmHg 80%
    02:00 +16°C° 0 mm 2 mps 755 mmHg 84%
    03:00 +16°C° 0 mm 2 mps 755 mmHg 87%
    04:00 +15°C° 0 mm 1 mps 755 mmHg 90%
    05:00 +17°C° 0 mm 2 mps 755 mmHg 83%
    06:00 +19°C° 0 mm 2 mps 755 mmHg 76%
    07:00 +20°C° 0 mm 2 mps 755 mmHg 69%
    08:00 +24°C° 0 mm 2 mps 755 mmHg 61%
    09:00 +26°C° 0 mm 2 mps 756 mmHg 53%
    10:00 +29°C° 0 mm 2 mps 756 mmHg 44%
    11:00 +29°C° 0 mm 2 mps 755 mmHg 44%
    12:00 +29°C° 0 mm 2 mps 755 mmHg 43%
    13:00 +30°C° 0 mm 3 mps 755 mmHg 42%
    14:00 +29°C° 0 mm 3 mps 755 mmHg 44%
    15:00 +28°C° 0 mm 3 mps 755 mmHg 47%
    16:00 +27°C° 0 mm 3 mps 755 mmHg 49%
    17:00 +25°C° 0 mm 3 mps 755 mmHg 53%
    18:00 +24°C° 0 mm 3 mps 755 mmHg 57%
    19:00 +21°C° 0 mm 2 mps 756 mmHg 62%
    20:00 +19°C° 0 mm 2 mps 756 mmHg 68%
    21:00 +17°C° 0 mm 2 mps 756 mmHg 74%
    22:00 +15°C° 0 mm 2 mps 756 mmHg 80%
    23:00 +14°C° 0 mm 2 mps 756 mmHg 83%
    Mostrar más